Change the Weather History Date:

Wednesday, January 18, 2012

  Actual Average (KAPA) Record (KAPA)
Temperature  
Mean Temperature 31 °F -  
Max Temperature 41 °F 43 °F 61 °F (1999)
Min Temperature 21 °F 20 °F 6 °F (2007)
Degree Days  
Heating Degree Days 34    
Moisture  
Dew Point 12 °F    
Average Humidity 48    
Maximum Humidity 68    
Minimum Humidity 33    
Precipitation  
Precipitation 0.00 in - - ()
Sea Level Pressure  
Sea Level Pressure 29.85 in    
Wind  
Wind Speed 9 mph (WSW)    
Max Wind Speed 26 mph    
Max Gust Speed 32 mph    
Visibility 10 miles    
Events      
Averages and records for this station are not official NWS values.
T = Trace of Precipitation, MM = Missing Value Source: NWS Daily Summary

Daily Weather History Graph

Daily Weather History Graph

Search for Another Location

Airport or City:

Trip Planner

Search our weather history database for the weather conditions in past years. The results will help you decide how hot, cold, wet, or windy it might be!

Date:

Astronomy

Jan. 18, 2012 Rise Set
Actual Time 7:15 AM MST 5:02 PM MST
Civil Twilight 6:46 AM MST 5:31 PM MST
Nautical Twilight 6:13 AM MST 6:04 PM MST
Astronomical Twilight 5:41 AM MST 6:36 PM MST
Moon 2:47 AM MST (1/18) 12:44 PM MST (1/18)
Length of Visible Light 10h 45m
Length of Day
9h 47m
Waning Crescent, 24% of the Moon is Illuminated
Jan 18
Waning Crescent
Jan 23
New
Jan 30
First Quarter
Feb 7
Full
Feb 14
Last Quarter

Hourly Weather History & Observations

Time (MST) Temp. Windchill Dew Point Humidity Pressure Visibility Wind Dir Wind Speed Gust Speed Precip Events Conditions
12:18 AM 21.2 °F 12.6 °F -4.0 °F 33% 29.95 in 10.0 mi SW 6.9 mph - N/A   Clear
12:38 AM 21.2 °F 10.1 °F -2.2 °F 36% 29.95 in 10.0 mi SW 10.4 mph - N/A   Clear
12:58 AM 21.2 °F 9.5 °F -0.4 °F 39% 29.94 in 10.0 mi SW 11.5 mph - N/A   Clear
1:17 AM 21.2 °F 9.5 °F 1.4 °F 42% 29.94 in 10.0 mi WSW 11.5 mph 16.1 mph N/A   Clear
1:38 AM 23.0 °F 11.1 °F -0.4 °F 36% 29.94 in 10.0 mi SW 12.7 mph - N/A   Clear
1:58 AM 23.0 °F 11.1 °F 1.4 °F 39% 29.93 in 10.0 mi SW 12.7 mph - N/A   Clear
2:38 AM 23.0 °F 13.1 °F 3.2 °F 43% 29.92 in 10.0 mi SW 9.2 mph 18.4 mph N/A   Clear
2:58 AM 23.0 °F 15.8 °F 3.2 °F 43% 29.91 in 10.0 mi WSW 5.8 mph - N/A   Clear
3:18 AM 23.0 °F 11.7 °F 5.0 °F 46% 29.91 in 10.0 mi WSW 11.5 mph 19.6 mph N/A   Clear
3:38 AM 23.0 °F 10.6 °F 6.8 °F 50% 29.91 in 10.0 mi WSW 13.8 mph 19.6 mph N/A   Clear
3:57 AM 23.0 °F 8.3 °F 8.6 °F 54% 29.89 in 10.0 mi WSW 19.6 mph 24.2 mph N/A   Clear
4:18 AM 24.8 °F 14.6 °F 10.4 °F 54% 29.91 in 10.0 mi WSW 10.4 mph - N/A   Clear
4:38 AM 23.0 °F 13.1 °F 10.4 °F 59% 29.92 in 10.0 mi WSW 9.2 mph - N/A   Clear
4:57 AM 21.2 °F 9.5 °F 10.4 °F 63% 29.90 in 10.0 mi WSW 11.5 mph - N/A   Clear
5:18 AM 21.2 °F 10.9 °F 10.4 °F 63% 29.90 in 10.0 mi WSW 9.2 mph - N/A   Clear
5:38 AM 21.2 °F 10.9 °F 10.4 °F 63% 29.90 in 10.0 mi West 9.2 mph - N/A   Clear
6:18 AM 21.2 °F - 10.4 °F 63% 29.92 in 10.0 mi Calm Calm - N/A   Clear
6:38 AM 21.2 °F 16.4 °F 8.6 °F 58% 29.92 in 10.0 mi WSW 3.5 mph - N/A   Clear
6:58 AM 24.8 °F 15.3 °F 10.4 °F 54% 29.91 in 10.0 mi SW 9.2 mph - N/A   Clear
7:18 AM 23.0 °F 14.7 °F 10.4 °F 59% 29.91 in 10.0 mi SW 6.9 mph - N/A   Clear
7:38 AM 23.0 °F 17.0 °F 10.4 °F 59% 29.91 in 10.0 mi SSW 4.6 mph - N/A   Clear
7:58 AM 21.2 °F 12.6 °F 12.2 °F 68% 29.91 in 10.0 mi South 6.9 mph - N/A   Clear
8:18 AM 26.6 °F 19.1 °F 10.4 °F 51% 29.91 in 10.0 mi SSW 6.9 mph - N/A   Clear
8:37 AM 28.4 °F 20.4 °F 10.4 °F 47% 29.91 in 10.0 mi SW 8.1 mph - N/A   Clear
8:58 AM 30.2 °F 23.4 °F 8.6 °F 40% 29.92 in 10.0 mi SW 6.9 mph - N/A   Clear
9:18 AM 32.0 °F 26.4 °F 8.6 °F 38% 29.92 in 10.0 mi SW 5.8 mph - N/A   Clear
9:38 AM 32.0 °F 24.2 °F 8.6 °F 38% 29.91 in 10.0 mi SW 9.2 mph - N/A   Clear
9:58 AM 33.8 °F 28.6 °F 8.6 °F 35% 29.91 in 10.0 mi SW 5.8 mph - N/A   Clear
10:18 AM 33.8 °F 27.0 °F 8.6 °F 35% 29.91 in 10.0 mi WSW 8.1 mph - N/A   Clear
10:58 AM 33.8 °F 26.4 °F 12.2 °F 41% 29.89 in 10.0 mi WSW 9.2 mph - N/A   Clear
11:18 AM 35.6 °F 28.0 °F 12.2 °F 38% 29.87 in 10.0 mi WSW 10.4 mph - N/A   Clear
11:38 AM 35.6 °F 27.1 °F 12.2 °F 38% 29.86 in 10.0 mi West 12.7 mph - N/A   Clear
11:57 AM 37.4 °F 29.3 °F 14.0 °F 38% 29.84 in 10.0 mi West 12.7 mph - N/A   Clear
12:18 PM 37.4 °F 30.3 °F 14.0 °F 38% 29.82 in 10.0 mi West 10.4 mph - N/A   Clear
12:37 PM 37.4 °F 30.8 °F 15.8 °F 41% 29.81 in 10.0 mi WSW 9.2 mph - N/A   Clear
12:58 PM 37.4 °F 32.8 °F 14.0 °F 38% 29.78 in 10.0 mi WSW 5.8 mph - N/A   Clear
1:17 PM 39.2 °F 33.0 °F 17.6 °F 42% 29.76 in 10.0 mi WSW 9.2 mph - N/A   Clear
1:58 PM 41.0 °F 37.1 °F 14.0 °F 33% 29.75 in 10.0 mi West 5.8 mph - N/A   Clear
2:57 PM 41.0 °F - 14.0 °F 33% 29.76 in 10.0 mi Calm Calm - N/A   Clear
3:18 PM 41.0 °F - 14.0 °F 33% 29.76 in 10.0 mi Calm Calm - N/A   Clear
3:38 PM 39.2 °F 37.0 °F 15.8 °F 39% 29.75 in 10.0 mi East 3.5 mph - N/A   Clear
3:58 PM 37.4 °F - 19.4 °F 48% 29.76 in 10.0 mi Calm Calm - N/A   Clear
4:18 PM 37.4 °F - 14.0 °F 38% 29.76 in 10.0 mi Calm Calm - N/A   Clear
4:36 PM 35.6 °F 32.8 °F 19.4 °F 52% 29.75 in 10.0 mi North 3.5 mph - N/A   Clear
4:58 PM 33.8 °F - 19.4 °F 56% 29.76 in 10.0 mi Calm Calm - N/A   Clear
5:18 PM 33.8 °F 26.4 °F 17.6 °F 52% 29.75 in 10.0 mi SW 9.2 mph - N/A   Clear
5:38 PM 33.8 °F 27.0 °F 17.6 °F 52% 29.76 in 10.0 mi WSW 8.1 mph - N/A   Clear
5:58 PM 32.0 °F 27.5 °F 17.6 °F 55% 29.77 in 10.0 mi West 4.6 mph - N/A   Clear
6:18 PM 32.0 °F 23.6 °F 17.6 °F 55% 29.77 in 10.0 mi WNW 10.4 mph - N/A   Clear
6:58 PM 35.6 °F 25.2 °F 19.4 °F 52% 29.77 in 10.0 mi WNW 18.4 mph 25.3 mph N/A   Clear
7:18 PM 35.6 °F 23.2 °F 19.4 °F 52% 29.77 in 10.0 mi WNW 26.5 mph 32.2 mph N/A   Clear
7:38 PM 35.6 °F 26.6 °F 21.2 °F 56% 29.75 in 10.0 mi West 13.8 mph - N/A   Clear
7:58 PM 35.6 °F 27.1 °F 21.2 °F 56% 29.74 in 10.0 mi WNW 12.7 mph - N/A   Clear
8:18 PM 35.6 °F 25.9 °F 21.2 °F 56% 29.75 in 10.0 mi WNW 16.1 mph 21.9 mph N/A   Clear
8:38 PM 37.4 °F 27.8 °F 21.2 °F 52% 29.76 in 10.0 mi WNW 17.3 mph 23.0 mph N/A   Clear
8:57 PM 37.4 °F 28.2 °F 21.2 °F 52% 29.76 in 10.0 mi WNW 16.1 mph 21.9 mph N/A   Clear
9:19 PM 35.6 °F 24.8 °F 21.2 °F 56% 29.78 in 10.0 mi WNW 19.6 mph 25.3 mph N/A   Clear
9:37 PM 35.6 °F 24.8 °F 19.4 °F 52% 29.78 in 10.0 mi WNW 19.6 mph - N/A   Clear
9:58 PM 37.4 °F 27.2 °F 21.2 °F 52% 29.79 in 10.0 mi WNW 19.6 mph 26.5 mph N/A   Clear
10:19 PM 35.6 °F 27.1 °F 21.2 °F 56% 29.79 in 10.0 mi WNW 12.7 mph - N/A   Clear
10:38 PM 35.6 °F 24.8 °F 21.2 °F 56% 29.79 in 10.0 mi WNW 19.6 mph 25.3 mph N/A   Clear
10:58 PM 37.4 °F 26.1 °F 21.2 °F 52% 29.79 in 10.0 mi WNW 24.2 mph 27.6 mph N/A   Clear
11:18 PM 37.4 °F 27.8 °F 19.4 °F 48% 29.81 in 10.0 mi NW 17.3 mph 31.1 mph N/A   Clear
11:37 PM 37.4 °F 29.8 °F 19.4 °F 48% 29.82 in 10.0 mi NW 11.5 mph - N/A   Clear
11:59 PM 33.8 °F 27.7 °F 19.4 °F 56% 29.82 in 10.0 mi WNW 6.9 mph - N/A   Clear